Livermore, CA

4:42 PM PST on December 17, 2017 (GMT -0800)
Livermore Municipal

Weather History for KLVK - February, 2014

Change the Weather History Date:

Sunday, February 16, 2014

  Actual Average Record
Temperature  
Mean Temperature 55 °F 51 °F  
Max Temperature 67 °F 61 °F 78 °F (1977)
Min Temperature 42 °F 41 °F 29 °F (2006)
Degree Days  
Heating Degree Days 10 14  
Month to date heating degree days 194 250  
Since 1 July heating degree days 1406 1848  
Cooling Degree Days 0 0  
Month to date cooling degree days 0 0  
Year to date cooling degree days 0 0  
Growing Degree Days 5 (Base 50)    
Moisture  
Dew Point 45 °F    
Average Humidity 66    
Maximum Humidity 100    
Minimum Humidity 32    
Precipitation  
Precipitation 0.03 in 0.12 in 1.17 in (1990)
Month to date precipitation 1.18 1.58  
Year to date precipitation 1.27 4.59  
Since 1 July precipitation 3.65  
Sea Level Pressure  
Sea Level Pressure 30.13 in    
Wind  
Wind Speed 3 mph (NW)    
Max Wind Speed 14 mph    
Max Gust Speed 16 mph    
Visibility 6 miles    
Events Fog , Rain    
T = Trace of Precipitation, MM = Missing Value Source: NWS Daily Summary

Daily Weather History Graph

Daily Weather History Graph

Search for Another Location

Airport or City:

Trip Planner

Search our weather history database for the weather conditions in past years. The results will help you decide how hot, cold, wet, or windy it might be!

Date:

Astronomy

Feb. 16, 2014 Rise Set
Actual Time 6:55 AM PST 5:47 PM PST
Civil Twilight 6:28 AM PST 6:14 PM PST
Nautical Twilight 5:58 AM PST 6:45 PM PST
Astronomical Twilight 5:27 AM PST 7:15 PM PST
Moon 7:46 PM PST (2/16) 7:30 AM PST (2/16)
Length of Visible Light 11h 45m
Length of Day
10h 52m
Full, 97% of the Moon is Illuminated
Feb 16
Full
Feb 22
Last Quarter
Mar 1
New
Mar 8
First Quarter
Mar 16
Full

Hourly Weather History & Observations

Time (PST) Temp. Windchill Dew Point Humidity Pressure Visibility Wind Dir Wind Speed Gust Speed Precip Events Conditions
12:53 AM 57.9 °F - 52.0 °F 81% 30.04 in 10.0 mi WSW 5.8 mph - N/A   Overcast
1:53 AM 55.9 °F - 53.1 °F 90% 30.04 in 4.0 mi SW 8.1 mph - 0.00 in Rain Light Rain
2:17 AM 55.0 °F - 53.1 °F 93% 30.05 in 2.5 mi West 8.1 mph - 0.01 in Rain Light Rain
2:43 AM 55.0 °F - 53.1 °F 93% 30.06 in 5.0 mi WSW 8.1 mph - 0.03 in   Overcast
2:53 AM 55.0 °F - 53.1 °F 93% 30.06 in 10.0 mi WSW 9.2 mph - 0.03 in   Overcast
3:05 AM 55.0 °F - 52.0 °F 89% 30.06 in 10.0 mi West 10.4 mph - N/A   Overcast
3:53 AM 53.1 °F - 50.0 °F 89% 30.07 in 10.0 mi NW 3.5 mph - N/A   Clear
4:32 AM 52.0 °F - 48.9 °F 89% 30.08 in 10.0 mi SW 5.8 mph - N/A   Partly Cloudy
4:53 AM 52.0 °F - 50.0 °F 93% 30.10 in 10.0 mi Calm Calm - N/A   Mostly Cloudy
5:41 AM 50.0 °F - 48.0 °F 93% 30.11 in 2.0 mi Calm Calm - N/A   Clear
5:50 AM 48.2 °F - 48.2 °F 100% 30.11 in 6.0 mi NW 3.5 mph - N/A   Clear
5:53 AM 48.9 °F - 48.0 °F 97% 30.11 in 5.0 mi Calm Calm - N/A   Clear
6:05 AM 48.9 °F - 48.0 °F 97% 30.12 in 1.5 mi Calm Calm - N/A   Clear
6:11 AM 48.0 °F - 46.9 °F 96% 30.12 in 0.8 mi Calm Calm - N/A   Mist
6:41 AM 46.9 °F - 45.0 °F 93% 30.14 in 0.5 mi Calm Calm - N/A Fog Fog
6:43 AM 46.9 °F - 45.0 °F 93% 30.14 in 0.2 mi Calm Calm - N/A Fog Fog
6:53 AM 46.9 °F - 45.0 °F 93% 30.15 in 0.5 mi Calm Calm - N/A Fog Fog
6:57 AM 46.9 °F - 45.0 °F 93% 30.14 in 0.2 mi Calm Calm - N/A Fog Fog
7:08 AM 46.0 °F 43.9 °F 45.0 °F 96% 30.15 in 0.5 mi East 4.6 mph - N/A Fog Fog
7:17 AM 46.0 °F - 45.0 °F 96% 30.16 in 0.2 mi Calm Calm - N/A Fog Fog
7:27 AM 46.9 °F - 46.0 °F 97% 30.16 in 0.5 mi Calm Calm - N/A Fog Fog
7:44 AM 46.9 °F - 46.9 °F 100% 30.16 in 0.2 mi NE 3.5 mph - N/A Fog Fog
7:53 AM 48.0 °F - 46.9 °F 96% 30.17 in 0.2 mi Calm Calm - N/A Fog Fog
8:14 AM 48.9 °F - 46.9 °F 93% 30.18 in 1.0 mi East 4.6 mph - N/A   Mist
8:20 AM 48.9 °F - 48.0 °F 97% 30.18 in 0.2 mi ENE 3.5 mph - N/A Fog Fog
8:53 AM 50.0 °F - 48.9 °F 96% 30.19 in 5.0 mi Calm Calm - N/A   Haze
9:04 AM 51.1 °F - 48.9 °F 92% 30.19 in 5.0 mi Calm Calm - N/A   Scattered Clouds
9:53 AM 55.9 °F - 48.0 °F 75% 30.19 in 5.0 mi WSW 3.5 mph - N/A   Haze
10:53 AM 59.0 °F - 37.0 °F 44% 30.19 in 10.0 mi Calm Calm - N/A   Clear
11:53 AM 63.0 °F - 37.0 °F 38% 30.18 in 10.0 mi WNW 4.6 mph - N/A   Clear
12:53 PM 64.0 °F - 36.0 °F 35% 30.17 in 10.0 mi WNW 5.8 mph - N/A   Clear
1:53 PM 66.0 °F - 35.1 °F 32% 30.14 in 10.0 mi West 8.1 mph - N/A   Clear
2:53 PM 66.0 °F - 35.1 °F 32% 30.12 in 10.0 mi West 3.5 mph - N/A   Clear
3:53 PM 64.9 °F - 37.0 °F 36% 30.11 in 10.0 mi ENE 10.4 mph - N/A   Clear
4:53 PM 62.1 °F - 37.0 °F 39% 30.11 in 10.0 mi NE 5.8 mph - N/A   Clear
5:53 PM 57.9 °F - 36.0 °F 44% 30.11 in 10.0 mi ENE 3.5 mph - N/A   Clear
6:53 PM 55.0 °F - 37.9 °F 53% 30.13 in 10.0 mi Calm Calm - N/A   Clear
7:53 PM 53.1 °F - 39.0 °F 59% 30.14 in 10.0 mi Calm Calm - N/A   Clear
8:53 PM 52.0 °F - 39.0 °F 61% 30.15 in 10.0 mi Calm Calm - N/A   Clear
9:53 PM 48.0 °F - 39.0 °F 71% 30.15 in 10.0 mi Calm Calm - N/A   Clear
10:53 PM 44.1 °F 41.5 °F 37.9 °F 79% 30.15 in 10.0 mi East 4.6 mph - N/A   Clear
11:53 PM 42.1 °F 40.2 °F 37.0 °F 82% 30.13 in 10.0 mi NE 3.5 mph - N/A   Clear